Aviation Digital Data Service (ADDS)

Output produced by METARs form (0236 UTC 22 July 2017)
found at http://www.aviationweather.gov/adds/metars/
 
OMAA 220200Z 08005KT 8000 NSC 34/20 Q0997 BECMG 16006KT
TAF OMAA 212300Z 2200/2306 04006KT 8000 NSC 
     BECMG 2201/2203 16008KT 
     BECMG 2208/2210 34013KT 
     BECMG 2219/2221 09006KT
       
OMAA 220200Z 08005KT 8000 NSC 34/20 Q0997 BECMG 16006KT
TAF OMAA 212300Z 2200/2306 04006KT 8000 NSC 
     BECMG 2201/2203 16008KT 
     BECMG 2208/2210 34013KT 
     BECMG 2219/2221 09006KT
       
OMAD 220200Z 06003KT 020V100 CAVOK 34/23 Q0997 BECMG 12006KT
TAF OMAD 212300Z 2200/2306 04006KT 8000 NSC 
     BECMG 2201/2203 16008KT 
     BECMG 2208/2210 34013KT 
     BECMG 2219/2221 09006KT
       
OMAL 220200Z 06003KT 020V100 CAVOK 34/23 Q0997 BECMG 12006KT
TAF OMAL 212300Z 2200/2306 17011KT 8000 NSC 
     BECMG 2210/2212 34011KT 
     BECMG 2212/2214 VRB18G30KT 3000 BLDU FEW050TCU 
     BECMG 2218/2220 04008KT 
     BECMG 2300/2302 18010KT
       
OMDB 220200Z 12003KT 8000 NSC 35/15 Q0997 NOSIG
TAF OMDB 212300Z 2200/2306 11005KT 8000 NSC 
     BECMG 2203/2205 17010KT 
     BECMG 2208/2210 35012KT 
     BECMG 2215/2217 05005KT
       
OMDW 220200Z 14007KT 8000 NSC 32/16 Q0998 NOSIG
TAF OMDW 212300Z 2200/2306 04005KT 8000 NSC 
     BECMG 2203/2205 17010KT 
     BECMG 2209/2211 34015KT 
     PROB30 
     TEMPO 2210/2213 34018G28KT 3000 BLDU 
     BECMG 2215/2217 05005KT
       
OMFJ 220200Z 05004KT 6000 NSC 33/27 Q0997 RMK A2946
TAF OMFJ 212300Z 2200/2306 VRB03KT 7000 NSC 
     TEMPO 2200/2204 5000 HZ FEW018 
     BECMG 2204/2206 07010KT 
     BECMG 2213/2215 15006KT
       
OMRK 220200Z 18006KT CAVOK 29/10 Q0997 A2946
TAF OMRK 212300Z 2200/2306 VRB02KT 8000 NSC 
     BECMG 2208/2210 35012KT 
     BECMG 2215/2217 VRB02KT
       
OMSJ 220200Z 11003KT CAVOK 30/15 Q0997
TAF OMSJ 212300Z 2200/2306 15009KT 8000 NSC 
     BECMG 2208/2210 35012KT 
     BECMG 2215/2217 05005KT
       
OMAL 220200Z 06003KT 020V100 CAVOK 34/23 Q0997 BECMG 12006KT
TAF OMAL 212300Z 2200/2306 17011KT 8000 NSC 
     BECMG 2210/2212 34011KT 
     BECMG 2212/2214 VRB18G30KT 3000 BLDU FEW050TCU 
     BECMG 2218/2220 04008KT 
     BECMG 2300/2302 18010KT
       
OMAD 220200Z 06003KT 020V100 CAVOK 34/23 Q0997 BECMG 12006KT
TAF OMAD 212300Z 2200/2306 04006KT 8000 NSC 
     BECMG 2201/2203 16008KT 
     BECMG 2208/2210 34013KT 
     BECMG 2219/2221 09006KT
       
OMDB 220200Z 12003KT 8000 NSC 35/15 Q0997 NOSIG
TAF OMDB 212300Z 2200/2306 11005KT 8000 NSC 
     BECMG 2203/2205 17010KT 
     BECMG 2208/2210 35012KT 
     BECMG 2215/2217 05005KT
       
OMFJ 220200Z 05004KT 6000 NSC 33/27 Q0997 RMK A2946
TAF OMFJ 212300Z 2200/2306 VRB03KT 7000 NSC 
     TEMPO 2200/2204 5000 HZ FEW018 
     BECMG 2204/2206 07010KT 
     BECMG 2213/2215 15006KT
       
OMRK 220200Z 18006KT CAVOK 29/10 Q0997 A2946
TAF OMRK 212300Z 2200/2306 VRB02KT 8000 NSC 
     BECMG 2208/2210 35012KT 
     BECMG 2215/2217 VRB02KT
       
OMAA 220200Z 08005KT 8000 NSC 34/20 Q0997 BECMG 16006KT
TAF OMAA 212300Z 2200/2306 04006KT 8000 NSC 
     BECMG 2201/2203 16008KT 
     BECMG 2208/2210 34013KT 
     BECMG 2219/2221 09006KT
       
OMAD 220200Z 06003KT 020V100 CAVOK 34/23 Q0997 BECMG 12006KT
TAF OMAD 212300Z 2200/2306 04006KT 8000 NSC 
     BECMG 2201/2203 16008KT 
     BECMG 2208/2210 34013KT 
     BECMG 2219/2221 09006KT
       
OMAL 220200Z 06003KT 020V100 CAVOK 34/23 Q0997 BECMG 12006KT
TAF OMAL 212300Z 2200/2306 17011KT 8000 NSC 
     BECMG 2210/2212 34011KT 
     BECMG 2212/2214 VRB18G30KT 3000 BLDU FEW050TCU 
     BECMG 2218/2220 04008KT 
     BECMG 2300/2302 18010KT
       
OMDB 220200Z 12003KT 8000 NSC 35/15 Q0997 NOSIG
TAF OMDB 212300Z 2200/2306 11005KT 8000 NSC 
     BECMG 2203/2205 17010KT 
     BECMG 2208/2210 35012KT 
     BECMG 2215/2217 05005KT
       
OMDW 220200Z 14007KT 8000 NSC 32/16 Q0998 NOSIG
TAF OMDW 212300Z 2200/2306 04005KT 8000 NSC 
     BECMG 2203/2205 17010KT 
     BECMG 2209/2211 34015KT 
     PROB30 
     TEMPO 2210/2213 34018G28KT 3000 BLDU 
     BECMG 2215/2217 05005KT
       
OMFJ 220200Z 05004KT 6000 NSC 33/27 Q0997 RMK A2946
TAF OMFJ 212300Z 2200/2306 VRB03KT 7000 NSC 
     TEMPO 2200/2204 5000 HZ FEW018 
     BECMG 2204/2206 07010KT 
     BECMG 2213/2215 15006KT
       
OMRK 220200Z 18006KT CAVOK 29/10 Q0997 A2946
TAF OMRK 212300Z 2200/2306 VRB02KT 8000 NSC 
     BECMG 2208/2210 35012KT 
     BECMG 2215/2217 VRB02KT
       
OMSJ 220200Z 11003KT CAVOK 30/15 Q0997
TAF OMSJ 212300Z 2200/2306 15009KT 8000 NSC 
     BECMG 2208/2210 35012KT 
     BECMG 2215/2217 05005KT
       
OMSJ 220200Z 11003KT CAVOK 30/15 Q0997
TAF OMSJ 212300Z 2200/2306 15009KT 8000 NSC 
     BECMG 2208/2210 35012KT 
     BECMG 2215/2217 05005KT
       
OMAA 220200Z 08005KT 8000 NSC 34/20 Q0997 BECMG 16006KT
TAF OMAA 212300Z 2200/2306 04006KT 8000 NSC 
     BECMG 2201/2203 16008KT 
     BECMG 2208/2210 34013KT 
     BECMG 2219/2221 09006KT
       
OMAD 220200Z 06003KT 020V100 CAVOK 34/23 Q0997 BECMG 12006KT
TAF OMAD 212300Z 2200/2306 04006KT 8000 NSC 
     BECMG 2201/2203 16008KT 
     BECMG 2208/2210 34013KT 
     BECMG 2219/2221 09006KT
       
OMAL 220200Z 06003KT 020V100 CAVOK 34/23 Q0997 BECMG 12006KT
TAF OMAL 212300Z 2200/2306 17011KT 8000 NSC 
     BECMG 2210/2212 34011KT 
     BECMG 2212/2214 VRB18G30KT 3000 BLDU FEW050TCU 
     BECMG 2218/2220 04008KT 
     BECMG 2300/2302 18010KT
       
OMDB 220200Z 12003KT 8000 NSC 35/15 Q0997 NOSIG
TAF OMDB 212300Z 2200/2306 11005KT 8000 NSC 
     BECMG 2203/2205 17010KT 
     BECMG 2208/2210 35012KT 
     BECMG 2215/2217 05005KT
       
OMDW 220200Z 14007KT 8000 NSC 32/16 Q0998 NOSIG
TAF OMDW 212300Z 2200/2306 04005KT 8000 NSC 
     BECMG 2203/2205 17010KT 
     BECMG 2209/2211 34015KT 
     PROB30 
     TEMPO 2210/2213 34018G28KT 3000 BLDU 
     BECMG 2215/2217 05005KT
       
OMFJ 220200Z 05004KT 6000 NSC 33/27 Q0997 RMK A2946
TAF OMFJ 212300Z 2200/2306 VRB03KT 7000 NSC 
     TEMPO 2200/2204 5000 HZ FEW018 
     BECMG 2204/2206 07010KT 
     BECMG 2213/2215 15006KT
       
OMRK 220200Z 18006KT CAVOK 29/10 Q0997 A2946
TAF OMRK 212300Z 2200/2306 VRB02KT 8000 NSC 
     BECMG 2208/2210 35012KT 
     BECMG 2215/2217 VRB02KT
       
OMSJ 220200Z 11003KT CAVOK 30/15 Q0997
TAF OMSJ 212300Z 2200/2306 15009KT 8000 NSC 
     BECMG 2208/2210 35012KT 
     BECMG 2215/2217 05005KT